sat.trackr.live / text

‹ back to catalog

STARLINK-5347

NORAD 57137 · 2023-090AN

PAYLOAD ACTIVE UNKNOWN

§ Identity

Operator
Country
US
Launch date
2023-06-23
Launch site
AFETR
Launch vehicle
Mass (kg)
RCS (m²)

Purposes: comms

External: N2YO · Heavens-Above · Gunter

§ Orbital elements

Epoch: 2026-09-20T23:23:12.031584Z

Period
94.27 min
Inclination
43.0017°
Eccentricity
0.0000500
Mean motion
15.27575789 rev/d
Perigee alt
482.7 km
Apogee alt
483.4 km
Semi-major
6,861.2 km
B*
8.8106e-6
RAAN
240.1388°
Arg perigee
14.2187°
Mean anomaly
345.8678°
Rev number
18,022

§ Raw data

STARLINK-53471 57137U 23090AN  26263.97444481 -.00000019  00000+0  88106-5 0  99952 57137  43.0017 240.1388 0000500  14.2187 345.8678 15.27575789180224

JSON: /api/v1/satellites/57137 · /tle

For live sub-satellite position, see the globe view (requires WebGL).

§ Visibility from observer

Set your observer location to see the next 7 days of passes ≥ 10°. The values pass through the URL so the page stays shareable.

No JS? Fill the form by hand. The geolocation button needs JavaScript.